Location: San Vito
(41.8833°N, 12.9833°E)
Time: 08:46:20
(UTC+00:00)

CZ-4B R/B - Pass Details

Date: 17 November 2019
Orbit: 498 x 646 km, 97.7° (Epoch: 07 December)

Event Time Altitude Azimuth Distance (km) Brightness Sun altitude
Rises 03:35:43 0° 14° (NNE) 2,963 7.7 -26.7°
Reaches altitude 10° 03:37:57 10° 17° (NNE) 2,054 6.9 -26.3°
Maximum altitude 03:42:27 70° 102° (ESE) 689 4.3 -25.4°
Drops below altitude 10° 03:46:52 10° 186° (S) 2,022 6.7 -24.6°
Sets 03:49:03 0° 188° (S) 2,914 7.5 -24.2°
